Yamal-601

operational
NORAD ID: 44307 Int'l Des: 2019-031 Owner: GAZS Country: RU
HEOCIRCULARGSOGEO

Über Yamal-601

Beschreibung wird geladen...

Live-Position

3D-Globus wird geladen...

Nächste Überflüge

Höhenverlauf

Altitude vs Time

uPlot chart will show altitude changes over time

Zweizeiliger Elementsatz

1 44307U 19031A 26061.16999852 .00000102 00000-0 00000+0 0 9998
2 44307 0.0123 138.4849 0002645 200.8069 290.8365 1.00271345 24849
Epoch: 2. März 2026 • Age: 24 hours

Aktueller Status

Höhe 35793.0 km
Geschwindigkeit 3.07 km/s
Subsatellitenpunkt 0.04°N, 48.97°E
Startdatum 30. Mai 2019
Alter 6.7 years
Typ other

Technische Details

Klassifizierung Payload
Masse 3162.00 kg
Trockenmasse 2000.00 kg
Gesamtmasse 3162.00 kg
Länge 6.00 m
Durchmesser 2.00 m
Spannweite 27.00 m
Form Cyl + 2 Pan
Hersteller RESH
Bus-Typ Ekspress-2000
Phasenstatus In Orbit
Besitzer/Staat GAZS/RU

Große Konstellationen

Loading constellations...